Temp
76 76 76 76 76 76 76 76 76 77 76 77 77 77 77 78 78 79 79 79 79 79 79 78 79 79 80 79 79 78 78 78 79 78 78 78 78 78 80 80 79 79
76 76 77 77 76 77 76 77 77 77 76 76 77 77 77 78 79 79 79 79 79 79 79 79 79 79 79 79 78 78 78 78 78 80 78 78 79 79 79 79 80 79
76 76 77 76 77 77 78 77 77 77 78 78 78 77 78 79 79 78 79 79 79 80 79 79 79 79 79 79 78 79 79 77 78 79 79 78 79 79 79 80 80 80
76 77 77 78 77 77 78 77 77 77 78 77 78 79 79 80 79 79 78 80 79 79 79 79 79 79 79 79 78 78 78 78 79 78 78 78 78 79 79 79 80 80
77 77 77 78 78 78 77 77 78 77 78 78 79 78 78 78 78 79 78 78 78 79 79 79 79 79 79 78 78 78 78 78 78 78 78 78 78 79 80 79 79 80
77 77 77 77 77 77 77 77 78 78 78 78 78 79 79 79 79 79 79 79 79 79 80 79 79 79 79 79 78 78 79 79 79 77 78 78 79 79 80 80 79 79
77 77 77 78 78 78 78 77 78 78 78 80 79 78 79 78 78 78 79 79 80 79 80 79 78 79 79 79 78 78 78 78 78 78 78 78 78 78 79 79 78 78
78 77 78 77 78 78 78 78 78 78 78 78 79 79 79 79 78 79 79 79 80 79 79 80 79 79 79 79 78 78 78 79 78 78 77 78 77 77 78 78 78 77
78 77 77 77 78 78 79 79 79 79 78 78 79 79 79 79 79 79 78 78 79 79 78 79 79 79 79 79 78 78 78 79 79 78 77 78 77 77 78 78 78 77
76 77 78 78 78 79 79 79 80 79 79 79 80 80 79 79 79 79 79 78 78 78 78 78 78 79 79 79 79 79 78 78 78 78 78 78 78 78 79 78 78 77
75 76 77 78 79 79 79 80 80 80 79 80 80 80 80 80 78 79 78 77 79 78 78 78 79 79 78 79 79 79 79 79 79 78 78 78 78 78 79 78 78 78
74 74 75 76 78 79 80 80 80 80 80 80 80 80 80 80 80 79 79 78 78 79 79 79 79 79 78 79 80 80 79 79 79 79 79 79 78 78 78 79 79 78
74 74 75 76 77 77 78 79 80 80 80 80 80 80 80 80 81 79 79 79 78 79 79 79 79 79 78 78 79 79 79 79 79 79 79 79 79 79 80 79 79 79
74 75 75 76 76 75 76 77 78 79 79 79 79 79 80 81 81 80 80 79 79 79 79 79 78 78 78 78 78 79 79 79 79 79 79 79 79 79 80 80 80 80
73 74 74 74 75 75 74 75 76 77 77 78 78 79 81 81 82 82 80 79 79 78 79 79 79 79 79 79 78 78 79 79 79 79 79 79 79 80 80 79 80 81
72 72 72 72 73 73 73 74 76 76 77 76 77 77 78 77 78 78 80 80 79 78 78 79 79 80 78 74 76 79 78 79 79 78 78 78 78 78 79 79 80 81
71 72 72 71 72 71 71 71 72 74 75 75 75 75 75 76 77 77 78 79 79 79 79 79 81 82 74 69 68 71 79 79 78 78 78 78 78 78 78 79 80 80
71 72 72 71 71 71 71 71 72 72 73 74 75 75 75 76 76 77 77 78 79 79 79 80 81 76 70 68 68 67 71 79 80 79 79 78 78 78 79 79 79 80
71 71 71 71 71 71 71 71 70 70 71 72 74 76 76 75 75 76 77 77 78 77 78 79 81 74 68 67 67 66 66 72 80 80 80 80 79 78 79 78 78 79
70 71 71 71 71 71 72 72 71 71 71 72 72 73 74 75 76 76 76 76 77 77 77 78 78 75 68 66 65 65 65 68 77 78 79 80 79 79 80 79 78 78
69 69 70 70 70 71 71 71 71 71 72 73 74 73 73 74 75 75 75 76 77 78 78 79 81 69 63 64 63 62 64 67 76 77 78 78 79 80 79 80 80 79
67 67 66 66 66 67 68 68 69 69 70 71 72 72 73 73 75 75 75 76 76 77 77 77 80 66 63 64 63 62 62 71 74 75 76 77 78 78 79 78 79 79
65 65 65 65 64 64 64 65 66 67 68 70 71 71 72 74 75 75 76 76 75 76 75 76 78 69 61 59 59 60 66 73 73 74 74 75 76 77 77 78 78 78
65 65 65 64 63 64 64 64 65 66 67 69 68 70 71 73 74 74 75 75 76 76 77 76 77 72 62 59 58 57 65 73 72 72 73 73 73 74 75 75 76 77
65 66 65 65 65 65 65 65 65 65 67 67 68 69 71 72 73 73 73 74 76 77 75 76 77 73 60 58 59 58 65 73 72 73 73 74 74 75 76 76 76 76
66 66 66 65 65 65 66 65 67 66 65 66 67 69 70 72 72 73 72 72 73 75 76 76 75 76 71 59 57 57 59 68 71 72 73 73 73 74 74 75 75 76
MSLP
1020.43 1020.67 1020.99 1021.19 1021.31 1021.31 1021.47 1021.75 1021.79 1021.91 1021.99 1022.03 1022.23 1022.23 1022.27 1022.15 1022.11 1022.23 1022.23 1022.31 1022.35 1022.47 1022.51 1022.59 1022.63 1022.71 1022.75 1022.83 1022.87 1022.91 1022.99 1023.07 1023.11 1023.11 1023.23 1023.31 1023.43 1023.55 1023.67 1023.67 1023.75 1023.83
1020.27 1020.47 1020.67 1020.91 1021.07 1021.11 1021.23 1021.23 1021.43 1021.55 1021.71 1021.75 1021.79 1021.83 1021.83 1021.91 1021.91 1021.95 1022.11 1022.23 1022.27 1022.39 1022.39 1022.51 1022.59 1022.63 1022.71 1022.79 1022.83 1022.95 1023.03 1023.07 1023.15 1022.95 1023.15 1023.27 1023.31 1023.39 1023.47 1023.47 1023.51 1023.51
1020.07 1020.35 1020.55 1020.83 1020.99 1021.03 1020.99 1021.03 1021.15 1021.27 1021.39 1021.39 1021.47 1021.59 1021.71 1021.67 1021.79 1021.79 1021.91 1022.07 1022.27 1022.35 1022.43 1022.47 1022.55 1022.59 1022.63 1022.71 1022.75 1022.91 1023.03 1023.11 1023.15 1022.99 1023.07 1023.23 1023.23 1023.35 1023.31 1023.31 1023.35 1023.39
1019.91 1020.03 1020.23 1020.39 1020.51 1020.67 1020.71 1020.91 1021.03 1021.11 1021.15 1021.39 1021.47 1021.35 1021.43 1021.51 1021.59 1021.75 1021.83 1021.95 1022.19 1022.31 1022.35 1022.43 1022.47 1022.55 1022.59 1022.67 1022.75 1022.91 1022.95 1022.99 1022.91 1022.95 1023.15 1023.15 1023.15 1023.19 1023.23 1023.23 1023.23 1023.27
1019.71 1019.87 1019.91 1020.03 1020.15 1020.27 1020.47 1020.67 1020.83 1020.91 1021.03 1020.99 1021.07 1021.19 1021.39 1021.51 1021.63 1021.75 1021.83 1021.95 1022.07 1022.27 1022.35 1022.43 1022.43 1022.51 1022.55 1022.67 1022.75 1022.95 1022.95 1023.03 1022.99 1023.03 1023.23 1023.27 1023.15 1023.15 1023.11 1023.15 1023.27 1023.31
1019.47 1019.51 1019.63 1019.79 1019.95 1020.19 1020.43 1020.51 1020.51 1020.63 1020.75 1020.91 1020.95 1020.95 1021.15 1021.27 1021.47 1021.63 1021.75 1021.91 1021.95 1022.15 1022.31 1022.35 1022.43 1022.47 1022.51 1022.63 1022.79 1022.91 1022.99 1023.11 1023.03 1023.11 1023.27 1023.31 1023.19 1023.07 1023.11 1023.15 1023.27 1023.39
1019.35 1019.43 1019.55 1019.59 1019.79 1019.99 1020.23 1020.31 1020.35 1020.39 1020.47 1020.47 1020.59 1020.87 1020.91 1021.23 1021.39 1021.51 1021.59 1021.71 1021.83 1021.99 1022.19 1022.27 1022.35 1022.43 1022.43 1022.59 1022.79 1022.95 1022.95 1022.99 1023.03 1023.11 1023.27 1023.23 1023.19 1023.15 1023.07 1023.15 1023.23 1023.31
1019.03 1019.15 1019.35 1019.55 1019.71 1019.91 1020.11 1020.19 1020.27 1020.35 1020.31 1020.43 1020.63 1020.59 1020.71 1020.95 1021.15 1021.27 1021.39 1021.55 1021.71 1021.87 1021.99 1022.07 1022.19 1022.27 1022.35 1022.51 1022.75 1022.91 1022.99 1022.95 1023.07 1023.11 1023.19 1023.19 1023.15 1023.27 1023.07 1023.03 1023.07 1023.23
1018.83 1019.11 1019.27 1019.47 1019.59 1019.71 1019.91 1019.99 1020.11 1020.19 1020.15 1020.39 1020.47 1020.51 1020.55 1020.67 1020.87 1021.07 1021.23 1021.35 1021.51 1021.63 1021.75 1021.95 1022.03 1022.15 1022.23 1022.39 1022.55 1022.71 1022.83 1022.87 1022.87 1023.03 1023.15 1023.23 1023.23 1023.15 1023.07 1022.99 1023.11 1023.11
1018.99 1019.03 1019.19 1019.31 1019.47 1019.47 1019.67 1019.75 1019.87 1019.99 1020.03 1020.19 1020.23 1020.31 1020.55 1020.59 1020.67 1020.83 1021.03 1021.23 1021.39 1021.51 1021.59 1021.71 1021.83 1021.91 1022.03 1022.15 1022.27 1022.35 1022.51 1022.59 1022.59 1022.71 1022.83 1022.91 1022.99 1022.95 1022.91 1022.95 1022.99 1023.07
1018.95 1019.07 1019.27 1019.35 1019.39 1019.39 1019.51 1019.55 1019.71 1019.83 1019.91 1020.03 1020.11 1020.31 1020.35 1020.51 1020.71 1020.75 1020.99 1021.15 1021.31 1021.39 1021.43 1021.51 1021.55 1021.59 1021.79 1021.87 1021.91 1021.91 1022.03 1022.15 1022.27 1022.35 1022.47 1022.55 1022.59 1022.63 1022.59 1022.67 1022.79 1022.87
1018.91 1019.07 1019.23 1019.31 1019.35 1019.39 1019.43 1019.47 1019.51 1019.63 1019.75 1019.83 1019.87 1020.11 1020.23 1020.31 1020.51 1020.67 1020.83 1021.03 1021.07 1021.11 1021.15 1021.19 1021.19 1021.31 1021.43 1021.51 1021.59 1021.67 1021.79 1021.87 1021.95 1022.03 1022.11 1022.19 1022.27 1022.31 1022.31 1022.35 1022.47 1022.51
1018.87 1018.95 1018.99 1019.19 1019.27 1019.35 1019.35 1019.43 1019.51 1019.59 1019.71 1019.87 1019.83 1019.95 1020.11 1020.27 1020.35 1020.51 1020.55 1020.67 1020.79 1020.87 1020.95 1020.99 1021.07 1021.11 1021.19 1021.23 1021.31 1021.43 1021.59 1021.75 1021.83 1021.87 1021.87 1021.95 1021.95 1021.99 1022.03 1022.07 1022.11 1022.15
1018.79 1018.87 1019.03 1019.15 1019.23 1019.35 1019.43 1019.47 1019.51 1019.55 1019.59 1019.59 1019.75 1019.99 1020.07 1020.07 1020.15 1020.27 1020.27 1020.39 1020.51 1020.59 1020.63 1020.67 1020.83 1020.95 1020.99 1021.03 1021.07 1021.15 1021.31 1021.47 1021.55 1021.63 1021.71 1021.71 1021.71 1021.71 1021.75 1021.79 1021.75 1021.75
1019.07 1019.23 1019.31 1019.39 1019.47 1019.47 1019.55 1019.59 1019.59 1019.55 1019.55 1019.59 1019.67 1019.75 1019.75 1019.79 1019.79 1019.87 1020.11 1020.27 1020.31 1020.35 1020.39 1020.43 1020.55 1020.63 1020.63 1020.75 1020.91 1020.99 1020.99 1021.15 1021.19 1021.35 1021.43 1021.51 1021.51 1021.51 1021.47 1021.47 1021.47 1021.43
1019.23 1019.43 1019.39 1019.35 1019.35 1019.59 1019.83 1019.91 1019.83 1019.67 1019.63 1019.67 1019.67 1019.63 1019.67 1019.67 1019.71 1019.71 1019.79 1019.95 1020.11 1020.19 1020.19 1020.23 1020.27 1020.19 1020.15 1020.23 1020.31 1020.47 1020.67 1020.75 1020.83 1020.99 1021.07 1021.19 1021.35 1021.39 1021.31 1021.23 1021.19 1021.19
1019.43 1019.39 1018.95 1019.07 1019.15 1019.19 1019.27 1019.47 1019.83 1019.99 1019.99 1019.87 1019.79 1019.79 1019.75 1019.71 1019.67 1019.71 1019.67 1019.63 1019.75 1019.91 1020.07 1020.03 1019.95 1019.79 1019.75 1019.87 1020.03 1020.11 1020.19 1020.39 1020.59 1020.67 1020.75 1020.95 1021.15 1021.31 1021.35 1021.15 1021.03 1020.95
1019.31 1019.19 1019.15 1019.19 1019.11 1019.19 1019.23 1019.23 1019.27 1019.59 1020.15 1020.19 1019.95 1019.87 1019.75 1019.67 1019.71 1019.63 1019.51 1019.47 1019.47 1019.51 1019.63 1019.63 1019.59 1019.39 1019.43 1019.55 1019.71 1019.87 1020.03 1020.11 1020.19 1020.39 1020.51 1020.67 1020.75 1020.87 1020.87 1020.83 1020.83 1020.75
1018.95 1019.19 1019.51 1019.63 1019.47 1019.27 1019.35 1019.51 1019.59 1019.43 1019.71 1020.47 1020.51 1019.91 1019.67 1019.67 1019.59 1019.51 1019.47 1019.35 1019.35 1019.39 1019.43 1019.27 1019.23 1019.03 1019.15 1019.23 1019.39 1019.47 1019.63 1019.87 1019.95 1019.99 1020.19 1020.23 1020.31 1020.43 1020.47 1020.55 1020.55 1020.55
1018.99 1019.23 1019.55 1019.71 1019.55 1019.39 1019.31 1019.47 1019.63 1019.67 1019.59 1019.75 1020.47 1020.55 1020.07 1019.59 1019.43 1019.35 1019.27 1019.23 1019.19 1019.19 1019.19 1019.11 1019.07 1018.95 1019.03 1019.07 1019.15 1019.23 1019.31 1019.63 1019.67 1019.75 1019.79 1019.79 1019.91 1019.95 1020.03 1020.11 1020.15 1020.31
1019.31 1019.47 1019.67 1019.79 1019.67 1019.51 1019.51 1019.75 1019.87 1019.91 1019.99 1020.03 1020.11 1020.31 1020.59 1019.95 1019.31 1019.23 1019.07 1018.99 1018.95 1018.91 1018.99 1018.99 1018.83 1018.87 1018.99 1018.99 1018.99 1019.03 1019.11 1019.43 1019.51 1019.55 1019.55 1019.59 1019.51 1019.51 1019.63 1019.71 1019.75 1019.91
1019.71 1019.91 1020.07 1020.19 1020.11 1019.91 1019.83 1019.91 1020.11 1020.39 1020.59 1020.55 1020.51 1020.51 1020.23 1020.15 1019.39 1019.03 1019.03 1018.95 1018.83 1018.83 1018.91 1018.99 1018.71 1018.75 1018.83 1018.83 1018.79 1018.75 1018.87 1019.15 1019.27 1019.47 1019.55 1019.51 1019.51 1019.43 1019.47 1019.51 1019.55 1019.67
1019.99 1019.99 1020.07 1020.15 1020.11 1020.03 1020.11 1020.19 1020.35 1020.39 1020.55 1020.59 1020.71 1020.67 1020.55 1020.07 1019.71 1019.19 1018.87 1018.87 1018.91 1018.91 1019.07 1019.11 1018.99 1018.91 1018.99 1019.07 1019.19 1019.27 1019.27 1019.23 1019.35 1019.43 1019.55 1019.59 1019.55 1019.43 1019.43 1019.43 1019.43 1019.47
1020.27 1020.15 1020.15 1020.23 1020.23 1020.23 1020.39 1020.55 1020.55 1020.51 1020.59 1020.63 1020.83 1020.79 1020.67 1020.27 1019.63 1019.47 1019.27 1019.15 1019.11 1019.11 1018.99 1019.11 1018.99 1018.83 1018.83 1018.91 1019.07 1019.19 1019.31 1019.35 1019.43 1019.55 1019.63 1019.67 1019.67 1019.63 1019.59 1019.59 1019.55 1019.55
1020.79 1020.79 1020.75 1020.63 1020.67 1020.71 1020.63 1020.63 1020.75 1020.67 1020.51 1020.59 1020.87 1020.91 1020.71 1020.27 1019.95 1019.83 1019.55 1019.31 1019.19 1019.19 1019.11 1019.15 1019.03 1018.87 1018.91 1018.95 1018.99 1019.07 1019.19 1019.23 1019.35 1019.51 1019.59 1019.59 1019.59 1019.55 1019.43 1019.43 1019.47 1019.47
1021.07 1020.99 1020.91 1020.87 1020.83 1020.79 1020.67 1020.63 1020.51 1020.39 1020.19 1020.23 1020.63 1020.87 1020.83 1020.35 1020.07 1019.83 1019.71 1019.47 1019.39 1019.47 1019.47 1019.31 1019.23 1019.11 1018.99 1019.11 1019.15 1019.19 1019.27 1019.31 1019.39 1019.63 1019.79 1019.71 1019.63 1019.63 1019.63 1019.47 1019.47 1019.47
Wind_Speed
7 6 7 6 6 6 7 7 6 6 6 5 6 6 6 5 5 5 5 4 5 5 4 4 4 4 3 3 3 3 3 3 3 2 3 2 2 2 2 2 1 1
7 7 6 6 6 5 5 6 7 7 6 6 6 5 5 4 5 5 5 5 4 4 4 4 4 4 4 3 4 4 3 3 3 2 3 3 2 2 2 2 2 1
7 7 7 8 7 7 7 7 6 6 6 6 5 5 4 4 5 5 4 4 4 4 4 4 4 4 4 4 4 3 3 3 3 2 2 3 2 3 2 2 2 1
8 8 8 8 7 7 7 6 6 6 5 4 6 5 5 4 5 5 5 5 4 5 4 4 4 3 3 3 3 3 3 3 3 2 3 2 2 2 2 2 2 1
8 7 7 7 7 6 6 7 7 6 7 6 5 5 5 5 5 5 4 4 4 4 3 4 4 4 3 3 3 3 3 3 2 2 3 3 2 2 2 2 2 2
7 7 7 7 7 6 6 7 7 7 7 6 6 5 5 5 5 5 5 5 4 4 4 3 4 3 3 3 3 3 3 3 3 3 3 4 3 2 2 2 2 3
8 8 8 6 7 6 6 6 6 6 6 7 5 6 5 5 5 5 5 5 4 4 4 4 5 4 4 3 4 4 4 4 3 3 4 3 3 4 2 2 2 3
9 8 7 6 7 6 6 6 6 5 6 5 6 6 6 6 6 5 4 5 4 5 5 5 5 5 4 4 4 4 4 2 3 4 4 4 3 4 4 3 2 3
8 7 7 8 8 7 7 6 6 6 5 6 6 5 5 6 6 6 6 6 5 5 5 5 5 5 4 5 5 5 5 4 4 4 5 5 5 5 5 3 3 3
7 7 8 8 8 7 8 7 6 6 6 6 6 5 5 5 6 6 6 6 6 6 6 6 6 5 5 5 6 6 6 6 6 5 5 5 6 6 5 4 4 4
8 7 7 8 8 6 7 7 7 6 6 7 6 6 5 5 5 5 5 6 6 7 7 7 7 7 7 6 6 6 7 6 6 6 6 6 6 6 5 5 5 5
8 7 8 8 8 7 7 6 6 7 7 6 6 7 6 5 6 5 6 6 7 7 7 7 7 7 8 8 7 7 6 6 6 6 6 6 6 6 6 5 5 6
8 8 7 7 7 6 5 5 6 6 6 6 5 6 6 6 6 6 6 6 7 6 7 7 7 7 7 8 7 7 7 7 7 7 6 6 6 6 6 6 6 6
6 5 5 4 4 3 4 5 5 5 6 6 5 6 6 7 6 7 6 6 7 7 7 6 6 6 6 7 7 7 7 7 7 7 7 6 6 6 6 6 6 6
3 4 5 4 3 2 3 4 5 5 5 5 5 6 5 6 6 6 6 6 6 7 7 6 6 6 6 6 7 7 6 7 7 7 7 7 6 6 6 7 6 6
7 5 3 2 2 3 4 5 4 4 4 5 5 6 6 5 6 6 6 7 7 6 6 5 6 5 8 12 11 7 7 6 6 6 7 6 6 6 6 6 7 7
4 3 5 3 3 4 3 1 4 5 5 4 4 5 5 4 4 6 6 5 6 6 6 6 5 6 12 13 14 14 8 7 7 7 6 6 6 6 7 6 6 6
5 5 3 2 3 4 4 3 2 0 5 6 5 5 5 4 5 6 6 5 5 5 6 6 6 9 12 12 13 13 11 8 6 5 5 6 6 7 7 6 7 6
4 4 2 1 2 4 4 4 3 3 1 5 8 5 4 5 6 5 6 5 5 6 6 6 6 9 12 12 13 13 14 11 6 6 6 6 7 7 7 7 6 6
7 6 5 3 2 2 2 4 5 4 4 6 5 7 5 5 5 5 5 5 5 6 5 4 5 5 8 10 11 13 13 10 7 7 7 7 7 7 7 7 8 7
8 7 8 7 6 6 6 6 5 4 1 2 4 5 5 5 5 5 5 5 4 4 4 4 3 2 3 6 8 11 11 9 6 6 6 7 7 7 7 7 6 5
9 9 9 9 8 8 9 9 8 7 7 6 5 4 4 5 3 3 3 3 3 3 3 4 3 4 5 5 6 8 8 5 5 6 6 5 6 5 5 5 5 5
8 8 8 8 8 9 9 8 8 7 6 6 6 6 7 4 2 0 1 1 1 1 1 2 2 3 2 4 7 7 1 1 2 3 3 4 5 4 4 4 4 4
8 8 8 7 7 7 7 6 5 4 4 6 7 7 7 8 5 3 3 2 2 1 1 2 2 1 1 1 2 2 2 1 0 1 2 2 2 2 2 2 3 6
6 6 6 6 5 4 4 3 3 3 2 3 5 5 6 4 5 4 3 2 4 3 2 2 2 2 2 1 0 1 1 1 1 1 2 2 1 2 1 1 0 0
6 5 5 6 6 5 4 3 2 3 5 3 3 4 5 4 4 3 2 4 3 4 4 5 5 5 4 2 1 1 1 1 2 2 3 3 2 2 3 3 2 2
Wind_Direction
175 175 182 186 194 193 184 184 189 188 195 184 189 199 201 204 188 193 203 200 198 191 194 197 192 193 189 191 195 194 195 206 214 186 192 182 201 192 260 291 263 227
179 180 181 187 192 192 190 189 186 191 193 192 203 199 204 183 199 187 193 201 198 204 193 195 199 203 200 193 194 195 201 193 218 188 187 201 211 194 230 241 257 228
174 177 178 180 187 191 188 189 186 195 191 195 192 196 196 193 192 195 194 190 195 203 199 200 201 209 205 205 197 203 201 202 222 196 177 213 190 210 230 235 251 258
180 180 180 182 186 191 187 178 187 193 189 178 196 196 192 193 187 191 193 200 186 202 204 197 206 208 209 208 194 211 214 214 213 169 201 203 216 210 226 218 244 229
181 182 183 181 185 189 180 183 185 184 189 201 185 184 190 192 186 189 190 200 192 198 196 207 202 211 203 202 197 215 210 224 210 187 208 241 231 212 237 223 241 266
187 185 182 180 181 177 181 190 191 182 189 183 194 179 190 190 191 192 190 195 201 198 200 206 208 210 201 199 196 220 217 214 210 195 222 241 259 234 262 256 266 282
185 187 187 178 171 177 184 195 193 190 189 196 171 189 179 182 194 200 195 200 205 203 205 204 208 209 193 193 196 217 227 230 222 204 224 242 246 271 250 245 256 266
187 185 182 176 174 173 183 187 192 192 190 174 186 193 176 187 190 190 189 193 199 205 204 208 211 211 194 185 203 210 231 223 238 235 239 244 237 254 253 232 231 256
181 180 178 183 183 177 185 185 188 192 185 183 191 185 185 188 188 185 192 191 201 208 202 201 206 209 195 192 201 205 214 221 221 219 229 242 241 243 243 234 238 237
190 186 182 186 192 187 185 186 184 188 185 192 195 189 189 195 191 190 188 193 199 203 198 200 191 196 193 198 203 203 209 219 211 207 214 226 233 240 241 227 231 241
194 190 195 200 205 197 191 182 184 186 188 195 190 197 200 188 194 189 192 191 199 202 201 198 199 194 194 200 207 207 210 217 218 212 216 220 225 229 239 230 229 233
194 190 199 205 210 209 202 193 187 190 192 197 193 197 195 195 196 188 190 198 205 210 209 209 206 199 201 204 206 207 211 218 220 221 225 224 226 227 228 227 233 232
197 199 198 201 208 212 209 199 200 198 197 200 198 202 195 198 198 197 203 200 208 206 213 215 213 208 207 207 206 204 208 212 220 225 228 227 230 233 235 232 233 235
203 194 195 202 200 207 213 216 211 209 210 207 193 205 210 210 204 201 203 197 205 205 212 213 216 216 215 213 209 203 202 210 214 222 226 230 234 231 233 238 235 236
62 49 39 22 352 272 227 219 223 225 222 212 205 210 211 216 214 207 205 204 209 211 209 205 207 215 209 209 210 212 207 214 213 215 221 227 232 234 229 233 239 242
73 54 47 50 77 59 11 336 296 258 232 223 218 213 215 211 210 210 204 206 208 210 209 205 214 216 221 217 213 210 205 217 216 217 220 225 232 238 241 232 238 239
69 189 212 183 153 135 132 96 337 322 288 251 233 227 219 214 203 201 201 196 198 200 202 209 216 221 223 221 220 222 219 213 214 222 215 219 227 234 250 247 242 239
196 230 227 170 166 148 150 169 176 230 299 280 256 233 223 211 217 219 220 210 200 199 203 210 215 223 222 223 225 227 226 229 224 226 215 208 214 220 230 236 243 239
141 141 131 128 112 128 140 156 165 157 139 310 286 255 215 210 217 219 221 217 214 210 214 216 225 224 223 223 223 224 223 220 231 225 224 224 217 220 224 231 234 238
67 76 77 51 43 61 113 136 153 170 174 181 231 282 261 217 211 215 216 214 211 211 221 223 225 247 237 234 231 228 226 212 221 221 225 230 227 221 223 225 230 236
57 56 54 44 40 45 47 34 23 27 9 277 227 209 228 238 211 207 213 212 211 208 214 221 221 194 242 242 236 229 228 209 222 225 225 232 233 230 233 232 237 231
62 60 55 47 40 40 44 42 30 23 5 338 316 288 248 247 239 204 204 210 215 217 223 227 219 203 232 248 233 229 202 192 206 215 224 235 240 243 240 239 236 234
53 63 59 55 49 44 34 32 22 15 5 344 331 312 302 278 274 231 150 180 184 176 254 303 322 24 1 337 349 359 25 325 219 229 234 235 245 245 248 251 248 237
45 43 50 54 50 51 42 23 10 6 3 352 339 327 312 315 320 353 357 9 2 318 265 277 290 347 243 111 43 52 350 30 83 233 258 266 292 305 290 287 289 301
44 53 48 47 50 41 39 25 347 345 354 0 329 319 309 319 332 352 339 2 11 357 351 357 2 33 85 147 123 170 194 344 25 333 303 303 320 311 316 264 250 9
38 36 42 49 43 40 38 44 0 12 11 13 325 298 291 288 285 275 342 39 46 3 10 6 18 17 35 29 263 297 6 338 341 330 308 314 323 318 330 341 357 9